Regional Weather Roundup
Issued by NWS Little Rock, AR

Home | Current Version | Previous Version | Graphics & Text | Print | Product List | Glossary On
Versions: 1 2 3 4 5 6 7 8 9 10 11 12 13 14 15 16 17 18 19 20 21 22 23 24 25 26 27 28 29 30 31 32 33 34 35 36 37 38 39 40 41 42 43 44 45 46 47 48 49 50
501
ASUS44 KLZK 231605
RWRLZK

WEATHER ROUNDUP FOR ARKANSAS
NATIONAL WEATHER SERVICE LITTLE ROCK AR
1100 AM CDT MON MAY 23 2016

NOTE: "FAIR" INDICATES FEW OR NO CLOUDS BELOW 12,000 FEET WITH NO
SIGNIFICANT WEATHER AND/OR OBSTRUCTIONS TO VISIBILITY.

ARZ001-003-010-029-231700-
NORTHWEST ARKANSAS

CITY           SKY/WX    TMP DP  RH WIND       PRES   REMARKS
FAYETTEVILLE   CLOUDY    69  54  58 SE12G20   29.96F
FORT SMITH     CLOUDY    71  56  58 SE14G22   29.90F
HARRISON       MOSUNNY   72  53  51 S12G21    30.01F
BENTONVILLE    PTSUNNY   72  52  49 S15G23    29.96F
ROGERS           N/A     72  55  55 SE16      29.96S
SILOAM SPGS    CLOUDY    68  50  52 S10G16    29.96S
HIGHFILL       CLOUDY    71  54  54 SE21G30   29.95S
SPRINGDALE     MOSUNNY   72  54  53 SE14G23   29.98F
$$

ARZ004-005-016-231700-
NORTH CENTRAL ARKANSAS

CITY           SKY/WX    TMP DP  RH WIND       PRES   REMARKS
BATESVILLE     CLOUDY    77  55  47 S8        30.04S
FLIPPIN        CLOUDY   N/A N/A N/A S8        29.99S
MTN HOME       CLOUDY    73  55  53 S8        30.01S
$$

ARZ040-041-231700-
WEST CENTRAL ARKANSAS

CITY           SKY/WX    TMP DP  RH WIND       PRES   REMARKS
MENA           CLOUDY    66  63  88 SE3       29.99F
MOUNT IDA      CLOUDY    72  57  59 VRB5      30.01F
$$

ARZ009-017-025-026-028-231700-
NORTHEAST ARKANSAS

CITY           SKY/WX    TMP DP  RH WIND       PRES   REMARKS
CORNING          N/A     77  54  44 S8        30.03S
JONESBORO      SUNNY     80  49  33 SW8       30.02R
NEWPORT        CLOUDY    82  51  34 SW12      30.04S
WALNUT RIDGE   SUNNY     77  54  44 S7        30.03S
BLYTHEVILLE    SUNNY     79  49  34 E3        30.03S
NW BLYTHEVILLE MOSUNNY   79  52  38 CALM      30.03S
$$

ARZ022-023-033-042-044-231700-
CENTRAL ARKANSAS

CITY           SKY/WX    TMP DP  RH WIND       PRES   REMARKS
LITTLE ROCK    CLOUDY    79  56  45 S10       30.04R
N LITTLE ROCK    N/A     77  56  47 S7        30.02S
JACKSONVILLE   CLOUDY    78  57  49 S9        30.03R
SEARCY         CLOUDY    78  58  49 SW8       30.04F
HOT SPRINGS    PTSUNNY   77  56  48 S7        30.05R
RUSSELLVILLE   CLOUDY    73  58  59 VRB3      30.02S
CLINTON        FAIR      75  57  53 CALM      30.04S
$$

ARZ036-231700-
EAST ARKANSAS

CITY           SKY/WX    TMP DP  RH WIND       PRES   REMARKS
WEST MEMPHIS   SUNNY     80  49  33 VRB6      30.02R
$$

ARZ050-053-066-070-073-231700-
SOUTHWEST ARKANSAS

CITY           SKY/WX    TMP DP  RH WIND       PRES   REMARKS
ARKADELPHIA    FAIR      78  66  66 S8        30.05R
CAMDEN         PTSUNNY   77  55  47 S7        30.04S
TEXARKANA      PTSUNNY   75  59  57 W9        30.06S
EL DORADO      PTSUNNY   77  59  53 SE9       30.05R
DE QUEEN       LGT RAIN  65  63  93 S8        30.01S
$$

ARZ056-057-069-231700-
SOUTHEAST ARKANSAS

CITY           SKY/WX    TMP DP  RH WIND       PRES   REMARKS
PINE BLUFF     CLOUDY    79  54  41 S12       30.04R
STUTTGART      CLOUDY    81  52  36 S12       30.05R
MONTICELLO     CLOUDY    80  55  42 SW9       30.05R

$$






USA.gov is the U.S. government's official web portal to all federal, state and local government web resources and services.